Flag for Germany Weather past 2 weeks in Bernau bei Berlin, Brandenburg, Germany

Now
58 °F

Overcast.


Feels Like: 57 °F
Forecast: 45 / 56 °F
Wind: 5 mph from West

Location: Berlin-Tegel

Current Time: May 26, 2015 at 5:06:59 PM

Latest Report: May 26, 2015 at 4:00 PM


Visibility: 31 mi

Pressure: 30.01 "Hg

Humidity: 51%

Dew point: 40 °F

Location of Bernau bei BerlinLocation

Historic Weather in Bernau bei Berlin — Graph

°F

Bernau bei Berlin temperature yesterday

Maximum temperature yesterday: 72 °F (at 4:00 PM)
Minimum temperature yesterday: 49 °F (at 3:00 AM)
Average temperature yesterday: 61 °F

Past Weeks' High & Low Weather Summary

 TemperatureHumidityPressure
High82 °F (May 12, 4:00 PM)99% (May 15, 7:00 AM)30.32 "Hg (May 15, 7:00 AM)
Low37 °F (May 15, 6:00 AM)20% (May 24, 6:00 PM)29.59 "Hg (May 19, 4:00 AM)
Average56 °F62%30.01 "Hg
* Reported May 12 11:00 AM — May 26 4:00 PM, Bernau bei Berlin, Weather by CustomWeather, © 2015

Note: Actual official high and low records may vary slightly from our data, if they occured in-between our weather recording intervals... More about our weather records

Advertising

Bernau bei Berlin weather history for previous 24 hours

 ConditionsComfort  
Time TempWeatherWind HumidityBarometerVisibility
4:00 PM
Tue, May 26
58 °FOvercast.5 mph51%30.01 "Hg31 mi
3:00 PM58 °FOvercast.6 mph54%30.01 "Hg31 mi
2:00 PM57 °FOvercast.5 mph59%30.01 "Hg31 mi
1:00 PM57 °FOvercast.5 mph55%30.01 "Hg31 mi
12:00 PM58 °FOvercast.7 mph51%29.99 "Hg31 mi
11:00 AM58 °FPartly sunny.6 mph49%29.98 "Hg31 mi
10:00 AM58 °FScattered clouds.5 mph57%29.98 "Hg31 mi
9:00 AM55 °FPassing clouds.3 mph66%29.97 "Hg25 mi
8:00 AM52 °FSunny.3 mph74%29.97 "Hg25 mi
7:00 AM51 °FPassing clouds.3 mph76%29.96 "Hg25 mi
5:00 AM50 °FScattered clouds.3 mph78%29.94 "Hg19 mi
4:00 AM53 °FPassing clouds.3 mph74%29.92 "Hg16 mi
3:00 AM54 °FLight rain. Overcast.3 mph74%29.91 "Hg16 mi
2:00 AM55 °FOvercast.2 mph70%29.90 "Hg19 mi
1:00 AM55 °FOvercast.3 mph72%29.91 "Hg19 mi
12:00 AM56 °FOvercast.3 mph71%29.91 "Hg19 mi
11:00 PM
Mon, May 25
58 °FPassing clouds.5 mph70%29.90 "Hg19 mi
10:00 PM59 °FPassing clouds.3 mph68%29.89 "Hg19 mi
9:00 PM61 °FScattered clouds.5 mph63%29.87 "Hg19 mi
8:00 PM64 °FScattered clouds.5 mph56%29.85 "Hg22 mi
7:00 PM65 °FPartly sunny.6 mph57%29.85 "Hg19 mi
6:00 PM67 °FPartly sunny.5 mph48%29.85 "Hg19 mi
5:00 PM67 °FScattered clouds.6 mph42%29.85 "Hg19 mi
Weather by CustomWeather, © 2015

See weather overviewHow to use our weather pages